CAPE
380 444 308 302 335 384 439 464 453 527 661 694 653 649 602 585 584 632 706 824 969 993 1031 975 903 823 739 626 557 514 461 393 306 283 409 558 1211 368 912 1582 1686 1238 877
443 433 319 347 388 460 538 555 620 773 793 715 652 635 597 606 602 593 561 629 827 1003 1113 1100 978 739 471 312 290 268 299 254 252 318 421 307 1173 638 437 674 1195 1179 1027
521 434 415 411 483 560 640 707 721 794 804 761 710 641 668 614 536 453 505 724 961 1055 840 766 710 561 330 200 195 202 229 198 146 128 70 376 772 698 510 215 374 978 1242
529 566 625 597 595 579 633 763 838 892 891 824 758 720 676 594 561 580 605 568 444 586 578 325 117 12 0 0 0 0 7 9 30 46 16 365 779 690 269 413 277 360 578
565 666 755 731 725 691 658 684 792 794 784 783 765 788 752 660 509 230 146 221 251 186 63 8 0 0 0 0 0 0 0 0 0 0 15 335 643 688 652 221 194 313 428
452 564 665 674 632 594 640 654 656 705 731 753 805 782 635 284 62 38 68 57 1 0 0 0 0 0 0 0 0 0 0 0 0 0 14 139 580 355 182 391 430 531 568
314 334 330 305 347 432 543 614 626 623 651 652 516 286 39 25 20 27 9 0 0 0 0 0 0 0 0 0 0 0 0 0 0 0 0 149 492 657 611 495 597 607 627
0 0 0 12 37 62 74 94 147 181 173 85 22 2 5 11 0 0 0 0 0 0 0 0 0 0 0 0 0 0 0 0 0 0 0 0 262 269 508 437 317 445 482
0 0 0 0 0 0 0 0 0 0 0 0 0 0 10 0 0 0 0 0 0 0 0 0 0 0 0 0 0 0 0 0 0 0 0 0 33 231 240 164 101 105 304
0 0 0 0 0 0 0 0 0 0 0 0 0 0 0 0 13 0 0 0 0 0 0 0 0 0 0 0 0 0 0 0 0 0 0 0 0 147 192 10 0 27 129
0 0 0 0 0 0 0 0 0 0 0 0 0 15 19 31 59 74 5 0 0 0 0 0 0 0 0 0 0 0 0 0 0 0 0 0 0 6 380 214 39 0 0
0 0 0 0 0 0 0 0 0 0 0 0 28 55 51 74 48 127 96 53 11 0 0 0 0 0 0 0 0 0 0 0 0 0 0 0 0 0 33 3 0 0 0
0 0 0 0 0 0 0 0 0 23 25 42 95 58 71 113 127 94 75 0 0 0 0 0 0 0 0 0 0 0 0 0 0 0 0 0 0 0 0 0 0 0 0
0 0 0 0 0 0 0 0 30 70 141 170 166 182 91 67 71 5 0 0 0 0 0 0 0 0 0 0 0 0 0 0 0 0 0 0 0 0 0 0 0 0 0
20 6 0 3 10 0 11 15 21 55 198 307 315 75 0 4 0 0 0 0 0 0 0 0 0 0 0 0 0 0 0 0 0 0 0 0 0 0 0 0 0 0 0
21 68 0 17 83 20 0 12 52 100 173 221 279 21 0 0 0 0 0 0 0 0 0 0 0 0 0 0 0 0 0 0 0 0 0 0 0 0 0 0 0 0 0
113 93 6 39 2 4 0 0 0 0 51 212 89 0 0 0 0 0 0 0 0 0 0 0 0 0 0 0 0 0 0 0 0 0 0 0 0 0 0 0 0 0 0
168 142 8 134 0 10 83 2 0 0 0 0 1 0 0 0 0 0 0 0 0 0 0 0 0 0 0 0 0 0 0 0 0 0 0 0 0 0 0 0 0 0 0
260 256 25 4 0 0 2 0 0 0 0 0 0 0 0 0 0 0 0 0 0 0 0 0 0 0 0 0 0 0 0 0 0 0 0 0 0 0 0 0 0 0 0
126 125 3 0 0 0 0 0 0 0 0 0 0 0 0 0 0 0 0 0 0 0 0 0 0 0 0 0 0 0 0 0 0 0 0 0 0 0 0 0 0 0 0
0 0 0 0 0 0 0 0 0 0 0 0 0 0 0 0 0 0 0 0 0 0 0 0 0 0 0 0 0 0 0 0 0 0 0 0 0 0 0 0 0 0 0
0 0 0 0 0 0 0 0 0 0 0 0 0 0 0 0 0 0 0 0 0 0 0 0 0 0 0 0 0 0 0 0 0 0 0 0 0 0 0 0 0 0 0
0 0 0 0 0 0 0 0 0 0 0 0 0 0 0 0 0 0 0 0 0 0 0 0 0 0 0 0 0 0 0 0 0 0 0 0 0 0 0 0 0 0 0
0 0 0 0 0 0 0 0 0 0 0 0 0 0 0 0 0 0 0 0 0 0 0 0 0 0 0 0 0 0 0 0 0 0 0 0 0 0 0 0 0 0 0
0 0 0 0 0 0 0 0 0 0 0 0 0 0 0 0 0 0 0 0 0 0 0 0 0 0 0 0 0 0 0 0 0 0 1 0 0 0 0 0 0 0 0
0 0 0 0 0 0 0 0 0 0 0 0 0 0 0 0 0 0 0 0 0 0 0 0 0 0 0 0 0 0 0 0 0 0 3 0 1 0 0 0 0 0 0
CIN
-31 -30 -70 -88 -112 -121 -124 -134 -151 -141 -116 -100 -98 -85 -87 -89 -85 -60 -48 -28 -17 -18 -15 -28 -47 -66 -79 -98 -108 -115 -123 -131 -160 -151 -144 -136 -45 -124 -59 -22 -7 -13 -29
-42 -43 -100 -107 -114 -112 -116 -129 -123 -84 -73 -81 -85 -90 -103 -95 -80 -73 -73 -49 -17 -4 -2 -4 -18 -54 -92 -126 -138 -130 -114 -122 -154 -151 -141 -178 -53 -82 -84 -70 -44 -31 -26
-22 -57 -87 -113 -113 -107 -102 -92 -93 -70 -58 -69 -76 -92 -79 -70 -79 -86 -64 -24 -3 -1 -16 -24 -19 -41 -87 -120 -134 -123 -114 -120 -165 -190 -255 -115 -70 -77 -84 -126 -75 -49 -22
-31 -43 -59 -80 -89 -105 -99 -75 -57 -38 -30 -43 -54 -53 -55 -67 -63 -51 -52 -60 -89 -57 -49 -107 -163 -244 0 0 0 0 -282 -263 -243 -241 -268 -101 -50 -50 -112 -90 -88 -88 -75
-19 -29 -45 -63 -73 -92 -113 -107 -61 -49 -47 -40 -31 -27 -31 -57 -89 -163 -195 -161 -131 -156 -203 -164 -12 0 0 0 0 0 0 0 0 0 -268 -79 -54 -44 -54 -109 -121 -78 -62
-56 -59 -76 -83 -109 -127 -111 -88 -86 -62 -53 -37 -24 -33 -70 -156 -233 -247 -220 -224 -66 0 0 0 0 0 0 0 0 0 0 0 0 0 -215 -110 -45 -60 -106 -61 -83 -72 -55
-138 -159 -169 -194 -186 -163 -127 -108 -96 -103 -88 -80 -115 -170 -275 -278 -287 -265 -226 0 0 0 0 0 0 0 0 0 0 0 0 0 0 0 0 -110 -50 -31 -19 -28 -29 -43 -52
0 0 0 -151 -317 -305 -289 -285 -260 -238 -239 -263 -296 -170 -332 -300 -44 0 0 0 0 0 0 0 0 0 0 0 0 0 0 0 0 0 0 0 -47 -35 -15 -11 -14 -22 -34
0 0 0 0 0 0 0 0 0 0 0 0 0 0 -288 0 0 0 0 0 0 0 0 0 0 0 0 0 0 0 0 0 0 0 0 0 -84 -11 -6 -10 -23 -22 -24
0 0 0 0 0 0 0 0 0 0 0 0 0 0 0 -13 -271 0 0 0 0 0 0 0 0 0 0 0 0 0 0 0 0 0 0 0 0 -20 -6 -10 -0 -63 -35
0 0 0 0 0 0 0 0 0 0 0 0 0 -258 -271 -267 -245 -220 -78 0 0 0 0 0 0 0 0 0 0 0 0 0 0 0 0 0 0 -8 -10 -7 -20 0 0
0 0 0 0 0 0 0 0 0 0 0 0 -291 -267 -275 -254 -257 -190 -176 -171 -188 0 0 0 0 0 0 0 0 0 0 0 0 0 0 0 0 0 -24 -1 0 0 0
0 0 0 0 0 0 0 0 0 -314 -288 -267 -265 -267 -238 -211 -184 -177 -164 0 0 0 0 0 0 0 0 0 0 0 0 0 0 0 0 0 0 0 0 0 0 0 0
0 0 0 0 0 0 0 0 -320 -270 -236 -183 -181 -194 -193 -184 -161 -161 0 0 0 0 0 0 0 0 0 0 0 0 0 0 0 0 0 0 0 0 0 0 0 0 0
-267 -286 -0 -204 -213 0 -361 -316 -318 -271 -214 -154 -133 -162 0 -86 0 0 0 0 0 0 0 0 0 0 0 0 0 0 0 0 0 0 0 0 0 0 0 0 0 0 0
-266 -220 -0 -284 -261 -309 -131 -281 -234 -219 -183 -147 -104 -165 0 0 0 0 0 0 0 0 0 0 0 0 0 0 0 0 0 0 0 0 0 0 0 0 0 0 0 0 0
-212 -191 -263 -253 -163 -254 0 0 0 0 -170 -117 -147 0 0 0 0 0 0 0 0 0 0 0 0 0 0 0 0 0 0 0 0 0 0 0 0 0 0 0 0 0 0
-172 -158 -251 -160 0 -111 -155 -28 0 0 0 0 -65 0 0 0 0 0 0 0 0 0 0 0 0 0 0 0 0 0 0 0 0 0 0 0 0 0 0 0 0 0 0
-189 -176 -229 -156 -50 0 -174 0 0 0 0 0 0 0 0 0 0 0 0 0 0 0 0 0 0 0 0 0 0 0 0 0 0 0 0 0 0 0 0 0 0 0 0
-336 -278 -57 0 0 0 0 0 0 0 0 0 0 0 0 0 0 0 0 0 0 0 0 0 0 0 0 0 0 0 0 0 0 0 0 0 0 0 0 0 0 0 0
-2 -0 0 0 0 0 0 0 0 0 0 0 0 0 0 0 0 0 0 0 0 0 0 0 0 0 0 0 0 0 0 0 0 0 0 0 0 0 0 0 0 0 0
0 0 0 0 0 0 0 0 0 0 0 0 0 0 0 0 0 0 0 0 0 0 0 0 0 0 0 0 0 0 0 0 0 0 0 0 0 0 0 0 0 0 0
0 0 0 0 0 0 0 0 0 0 0 0 0 0 0 0 0 0 0 0 0 0 0 0 0 0 0 0 0 0 0 0 0 0 0 0 0 0 0 0 0 0 0
0 0 0 0 0 0 0 0 0 0 0 0 0 0 0 0 0 0 0 0 0 0 0 0 0 0 0 0 0 0 0 0 0 0 0 0 0 0 0 0 0 0 0
0 0 0 0 0 0 0 0 0 0 0 0 0 0 0 0 0 0 0 0 0 0 0 0 0 0 0 0 0 0 0 0 0 0 0 -0 0 0 0 0 0 0 0
0 0 0 0 0 0 0 0 0 0 0 0 0 0 0 0 0 0 0 0 0 0 0 0 0 0 0 0 0 0 0 0 0 -0 -1 -0 0 0 0 0 0 0 0
Wind_Speed
12 12 11 13 16 16 16 16 17 17 17 18 19 19 20 20 20 20 20 20 20 20 21 22 22 22 22 22 22 23 23 23 23 23 22 22 21 21 21 20 17 17 16
13 12 13 15 16 15 16 16 16 16 17 17 18 19 19 19 19 19 19 19 20 20 21 21 22 22 22 23 23 23 23 23 24 24 24 22 18 19 20 20 18 16 16
12 12 13 15 15 15 15 16 16 16 16 17 17 18 19 19 20 20 20 20 20 21 22 22 22 22 22 22 23 23 23 23 24 24 24 22 16 16 19 19 19 16 15
12 11 13 14 14 14 15 15 15 15 15 15 16 17 18 19 19 20 20 20 20 21 22 22 23 23 23 23 23 24 23 23 23 23 23 18 16 17 17 16 16 17 17
10 11 13 13 14 15 15 15 15 14 14 14 15 16 17 18 19 19 20 20 21 21 21 22 22 23 23 23 24 24 24 24 24 22 20 17 11 14 15 16 14 15 15
11 11 12 13 14 14 14 14 14 14 14 15 15 16 17 18 19 19 20 20 21 21 21 22 23 23 24 24 24 25 25 25 24 24 23 18 13 16 18 20 20 17 15
12 12 13 13 11 12 13 13 14 15 15 15 16 17 18 18 18 19 20 20 21 22 22 23 23 24 24 25 25 25 25 26 25 24 24 21 18 18 17 19 20 18 15
15 13 11 10 11 12 13 14 14 14 15 16 16 17 18 18 19 20 20 21 21 22 23 23 24 25 25 25 25 26 26 27 26 25 24 23 20 19 18 19 19 17 16
13 11 8 10 12 13 14 14 14 15 15 16 17 17 18 19 19 20 20 21 22 22 23 24 24 25 25 25 26 27 27 26 25 25 25 25 22 21 20 21 20 21 22
10 11 12 12 12 13 13 14 15 15 15 16 16 17 17 18 18 19 20 21 21 22 22 23 24 25 26 26 27 28 28 26 25 26 26 25 25 25 24 24 23 24 24
7 12 11 11 13 13 13 14 15 15 15 14 15 15 16 17 17 17 18 20 19 21 20 22 24 25 27 27 28 28 28 26 26 27 27 27 26 25 26 25 24 24 24
15 14 12 12 13 12 13 13 13 13 14 13 14 14 15 16 17 17 18 19 20 21 23 25 25 25 26 27 27 27 26 26 25 26 26 27 27 25 24 25 25 25 25
17 13 15 14 13 13 12 11 11 11 13 12 13 14 14 15 16 17 19 21 22 24 25 27 27 26 26 28 29 28 28 28 26 25 25 25 24 25 26 25 24 25 25
16 15 15 13 13 12 11 10 9 10 10 11 12 13 13 15 17 20 20 22 24 25 27 26 28 29 30 31 31 32 32 32 30 28 27 28 26 24 24 26 27 27 26
15 14 13 12 11 9 8 8 8 8 8 9 11 13 15 14 17 19 20 22 23 25 27 28 30 31 33 35 35 36 37 37 36 34 33 33 31 29 27 27 28 28 27
14 12 11 10 10 8 10 9 9 8 8 9 12 12 14 13 16 18 20 23 24 26 28 28 30 32 34 36 38 39 40 39 38 37 36 35 33 32 32 32 30 28 28
7 8 8 9 9 10 11 14 15 14 13 11 12 15 17 18 20 21 24 26 26 27 28 30 31 33 36 37 39 40 40 40 40 40 39 38 38 36 33 32 31 31 29
3 5 4 5 8 13 16 17 17 16 17 17 16 19 21 22 23 24 25 27 28 30 31 32 35 37 39 40 41 40 40 39 39 40 39 38 37 37 37 37 36 34 32
0 0 4 5 12 15 17 18 20 21 20 21 20 21 22 24 25 25 28 30 31 33 34 36 37 38 42 45 45 44 43 43 41 38 37 37 35 35 35 37 38 38 37
6 5 8 14 15 17 18 19 20 21 22 23 23 23 23 24 25 27 30 32 34 37 38 38 39 41 41 43 44 43 43 41 35 36 37 36 36 35 36 37 36 37 38
11 10 13 16 16 16 19 19 21 22 23 23 23 23 24 25 27 29 32 33 35 36 38 39 41 43 41 42 43 46 42 33 38 39 39 36 37 38 39 39 38 38 37
14 15 16 18 17 18 19 19 20 21 23 23 22 24 25 26 27 30 32 34 36 39 41 40 39 39 38 39 43 45 48 47 35 44 38 38 39 39 41 41 41 40 39
14 15 16 17 18 19 19 20 21 20 22 25 25 25 27 28 30 32 34 36 37 37 38 36 36 37 40 37 37 40 48 51 52 38 44 36 40 42 42 42 42 40 40
14 14 15 16 17 18 19 21 21 22 24 24 23 24 26 28 32 34 34 34 35 36 37 36 36 37 37 41 38 36 36 41 49 55 40 42 40 42 43 41 41 39 37
14 15 15 16 17 18 20 22 23 25 25 25 26 29 31 33 35 35 35 35 36 35 34 34 34 34 34 36 38 38 38 37 37 41 51 43 44 40 40 41 38 37 34
16 17 18 19 20 20 22 24 24 24 25 27 29 32 34 35 35 33 34 34 34 34 33 33 31 32 34 34 35 36 37 39 40 40 45 48 46 44 41 38 36 34 32
Wind_Direction
90 80 73 70 69 66 64 63 63 60 54 52 49 49 44 38 32 29 28 26 26 24 20 12 6 2 0 355 350 344 343 341 339 339 344 342 341 339 342 352 359 3 1
92 85 83 79 72 68 64 62 56 54 53 51 49 45 41 40 42 35 33 34 32 29 25 19 13 7 4 359 354 352 345 340 335 331 335 340 352 348 347 344 349 353 355
91 86 81 77 72 66 63 60 57 56 55 51 50 52 53 53 50 43 35 28 24 18 18 18 22 18 15 12 357 352 348 346 340 334 332 335 358 358 354 355 342 350 357
91 85 81 78 69 64 61 55 51 50 49 45 42 41 39 32 26 23 21 16 13 15 12 13 11 12 11 9 5 0 360 355 350 343 340 352 2 360 1 7 5 353 354
83 78 79 74 71 67 65 59 51 44 36 32 37 34 27 26 23 21 19 17 14 12 9 10 8 7 7 4 2 1 354 353 353 357 3 10 40 18 15 10 12 5 360
82 80 77 77 72 64 51 47 45 40 33 40 38 32 30 26 25 23 19 16 12 9 7 5 2 359 358 357 355 353 351 347 345 345 343 0 17 3 359 351 349 359 355
86 80 78 69 56 50 50 45 47 47 47 45 41 42 37 36 31 26 20 16 11 8 4 2 358 356 352 349 349 351 350 345 345 338 336 341 346 349 355 348 346 347 352
90 79 66 56 54 49 54 61 58 51 50 51 52 46 44 42 37 30 25 19 14 10 6 3 359 354 351 348 347 345 344 341 339 337 334 336 339 341 343 343 344 346 342
82 71 49 55 55 62 71 64 60 57 60 59 55 52 51 46 41 32 27 22 16 12 9 3 0 357 355 353 347 343 343 344 340 337 332 329 331 333 334 332 334 331 328
74 71 71 61 60 67 64 67 66 67 64 57 52 45 43 36 30 26 24 21 19 15 11 8 3 357 353 349 347 344 344 345 341 335 331 329 323 320 320 322 325 323 321
60 80 69 64 67 68 64 66 64 63 54 48 45 42 34 29 29 29 25 19 18 15 15 8 1 355 351 349 347 346 346 347 345 337 330 325 321 318 316 316 319 321 319
108 105 91 86 79 70 65 64 56 48 50 48 41 36 33 27 25 21 16 14 8 4 357 352 352 352 350 351 349 348 348 348 347 343 337 331 324 322 318 315 314 314 315
120 100 110 101 87 82 69 69 58 52 48 39 38 28 22 17 14 7 6 1 358 354 351 347 346 349 349 346 344 342 340 339 340 340 339 338 336 327 319 316 315 313 312
126 122 117 102 98 87 69 86 56 54 45 27 27 18 16 9 3 355 358 356 353 351 347 348 345 341 339 339 340 335 330 329 329 331 330 326 327 328 326 319 313 311 310
130 124 119 105 104 76 61 82 12 27 33 23 11 13 4 8 2 359 355 353 350 347 345 342 338 336 334 331 330 327 323 321 320 320 321 317 315 316 316 315 313 309 308
134 130 118 110 107 66 54 60 28 24 15 9 1 3 3 3 358 353 350 348 346 344 342 341 339 337 335 332 327 326 323 321 319 318 318 318 317 312 308 306 307 307 306
122 129 125 110 90 40 22 358 359 10 13 8 2 356 354 350 349 347 343 343 343 344 342 340 338 336 333 331 328 326 325 322 320 318 316 314 312 311 309 307 302 300 300
129 147 113 85 27 359 357 0 8 8 5 358 356 350 349 348 347 345 344 342 341 339 338 336 333 331 330 329 327 327 325 325 323 320 319 318 315 311 308 304 301 296 293
332 60 333 322 3 352 4 14 10 9 7 2 0 356 355 352 349 347 343 340 339 337 334 332 330 330 326 324 323 323 322 320 319 320 319 318 319 319 316 309 303 298 292
17 346 347 340 356 358 9 9 11 12 6 1 0 358 355 352 350 346 342 339 338 333 331 330 328 326 325 324 322 321 321 321 323 322 320 319 318 317 316 313 310 304 296
32 7 3 355 6 3 360 1 358 355 358 359 358 356 353 349 346 343 339 337 336 333 330 328 325 323 323 325 322 320 321 321 320 319 319 317 316 314 312 310 308 305 301
29 20 12 11 15 14 10 5 360 357 356 356 355 351 349 347 345 341 337 334 332 330 328 328 328 325 325 328 322 319 314 314 316 317 316 316 315 314 311 308 304 301 299
22 14 14 13 9 8 6 3 359 357 352 345 345 345 344 344 342 340 338 336 334 334 332 331 330 329 324 325 326 320 314 310 312 316 314 315 313 313 311 308 304 300 297
25 15 15 12 8 6 4 356 351 346 344 345 347 346 344 343 340 339 338 337 335 334 331 329 328 326 325 321 323 322 319 315 312 308 310 312 313 311 310 310 307 302 299
18 9 10 7 360 355 354 351 348 344 344 343 340 338 337 337 337 337 335 334 333 332 331 330 329 328 327 323 321 319 318 316 315 311 306 308 308 310 310 308 308 306 302
4 359 2 1 353 353 351 350 349 346 343 340 338 336 336 336 336 336 336 335 334 332 331 330 329 328 326 325 323 320 317 315 312 310 307 306 306 305 306 308 304 306 305